Date,TemperatureHighF,TemperatureAvgF,TemperatureLowF,DewpointHighF,DewpointAvgF,DewpointLowF,HumidityHigh,HumidityAvg,HumidityLow,PressureMaxIn,PressureMinIn,WindSpeedMaxMPH,WindSpeedAvgMPH,GustSpeedMaxMPH,PrecipitationSumIn
2013-9-1,82.0,74.5,69.6,73.1,70.9,68.7,100,89,70,29.81,29.71,7,0,7,0.13
2013-9-2,79.0,70.2,59.4,69.6,63.6,52.3,100,81,52,29.91,29.71,15,2,15,0.14
2013-9-3,75.4,62.7,52.4,60.4,54.6,50.6,99,76,52,30.03,29.90,12,1,12,0.00
2013-9-4,82.8,66.3,49.8,62.7,56.9,49.5,100,76,41,30.11,30.01,15,2,15,0.00
2013-9-5,73.0,63.0,50.2,59.8,52.4,38.4,98,73,31,30.24,30.08,10,1,10,0.00
2013-9-6,78.8,60.6,44.5,57.6,50.8,44.1,100,75,34,30.28,30.07,8,0,8,0.00
2013-9-7,84.8,67.4,51.3,70.9,60.6,48.4,96,80,52,30.08,29.89,11,1,11,0.00
2013-9-8,75.2,67.6,57.0,67.6,63.2,56.1,97,86,64,30.04,29.91,12,1,12,0.00
2013-9-9,85.0,67.4,55.1,75.7,64.4,54.3,99,91,68,30.05,29.89,7,0,7,0.43
2013-9-10,97.4,83.1,73.4,76.3,71.0,65.7,94,70,39,30.01,29.91,11,2,11,0.00
2013-9-11,94.8,78.8,68.6,74.5,70.2,67.8,99,77,44,30.04,29.88,13,1,13,0.10
2013-9-12,79.8,68.9,54.8,70.4,63.3,51.2,99,84,47,29.95,29.81,17,1,17,0.36
2013-9-13,62.2,53.6,40.9,50.9,46.2,39.8,97,77,54,30.14,29.95,15,2,15,0.00
2013-9-14,68.8,51.1,36.4,51.7,43.4,36.2,100,79,37,30.22,30.11,6,0,6,0.00
2013-9-15,69.0,55.2,43.7,59.5,50.0,43.2,100,85,51,30.15,30.02,10,1,10,0.04
2013-9-16,65.3,55.8,47.7,55.0,51.9,46.1,100,88,61,30.36,30.12,2,1,11,0.01
2013-9-17,66.7,54.7,38.2,53.2,47.9,37.9,100,80,54,30.40,30.20,5,1,11,0.00
2013-9-18,79.0,60.4,47.9,62.4,55.4,47.4,100,86,49,30.20,30.04,7,0,7,0.00
2013-9-19,82.7,68.5,58.8,69.9,64.8,58.3,100,89,63,30.05,29.91,9,1,9,0.00
2013-9-20,85.0,72.7,66.1,72.5,68.7,65.2,99,88,62,29.92,29.72,17,2,17,0.15
2013-9-21,70.6,62.4,49.0,65.0,56.0,46.4,99,81,51,29.87,29.67,14,2,14,0.30
2013-9-22,62.9,52.5,43.1,48.5,44.5,41.3,99,76,52,30.08,29.87,11,1,11,0.00
2013-9-23,62.9,50.2,39.7,49.9,45.3,38.9,99,85,57,30.19,30.08,8,0,8,0.00
2013-9-24,65.6,50.2,36.0,52.1,44.9,35.8,100,84,55,30.16,30.00,7,1,12,0.00
2013-9-25,71.2,55.4,42.3,59.5,51.2,41.9,100,88,60,30.01,29.93,10,1,10,0.00
2013-9-26,74.3,57.0,44.0,59.6,50.0,44.0,100,82,40,30.14,29.98,11,1,11,0.01
2013-9-27,74.3,58.0,43.8,63.1,52.9,43.5,100,85,56,30.23,30.14,11,1,11,0.00
2013-9-28,82.3,62.4,45.5,60.8,53.3,45.1,100,77,39,30.19,30.02,9,0,9,0.00
2013-9-29,63.3,60.5,57.2,62.4,58.3,53.3,99,93,80,30.03,29.95,6,0,6,0.30
2013-9-30,72.0,59.8,50.8,59.9,56.8,50.5,100,91,63,30.03,29.92,8,1,8,0.00